• MPC Preparation (Info)

  • MPEC 2022-R34 : 2022 QK36

    The following Minor Planet Electronic Circular may be linked-to from your own Web pages, but must not otherwise be redistributed electronically.

    A form allowing access to any MPEC is at the bottom of this page.


    Read MPEC 2022-R33 Read MPEC 2022-R35


    M.P.E.C. 2022-R34                             Issued 2022 September 3, 11:34 UT
    
         The Minor Planet Electronic Circulars contain information on unusual
             minor planets and routine data on comets.  They are published
        on behalf of Division F of the International Astronomical Union by the
              Minor Planet Center, Smithsonian Astrophysical Observatory,
                              Cambridge, MA 02138, U.S.A.
    
                 Prepared using the Tamkin Foundation Computer Network
    
                                  MPC@CFA.HARVARD.EDU
                URL https://www.minorplanetcenter.net/    ISSN 1523-6714
    
                                    2022 QK36                                
    
    
    Observations:
         K22Q36K* C2022 08 31.31582521 04 00.745-06 47 47.14         21.89wUER034F52
         K22Q36K  C2022 08 31.33897721 04 04.266-06 47 18.21         21.33wUER034F52
         K22Q36K  C2022 08 31.35053621 04 06.014-06 47 03.65         21.63wUER034F52
         K22Q36K  C2022 08 31.41812221 04 16.255-06 45 37.40         21.40GVER034F52
         K22Q36K  C2022 08 31.41902421 04 16.397-06 45 36.14         21.75GVER034F52
         K22Q36K KC2022 09 01.10510921 06 40.80 -06 31 18.4          20.9 VuER034H21
         K22Q36K KC2022 09 01.11245721 06 42.05 -06 31 08.6          20.8 VuER034H21
         K22Q36K KC2022 09 01.11980121 06 43.31 -06 30 59.2          20.9 VuER034H21
         K22Q36K KC2022 09 01.12714421 06 44.57 -06 30 50.0          21.1 VuER034H21
         K22Q36K  C2022 09 01.30288321 07 22.463-06 26 25.42         21.63GVER034F51
         K22Q36K  C2022 09 01.30354321 07 22.581-06 26 24.39         21.77GVER034F51
         K22Q36K  C2022 09 01.35225021 07 30.635-06 25 20.37         21.30wUER034F51
         K22Q36K  C2022 09 01.36579221 07 32.846-06 25 02.41         21.33wUER034F51
         K22Q36K  C2022 09 01.37932121 07 35.068-06 24 44.33         21.77wUER034F51
         K22Q36K |C2022 09 03.06259 21 13 57.17 -05 43 41.2          21.5 VuER034807
         K22Q36K |C2022 09 03.06860 21 13 58.32 -05 43 32.3          21.4 VuER034807
         K22Q36K |C2022 09 03.07460 21 13 59.55 -05 43 24.2          21.5 VuER034807
    
    Observer details:
    807 Cerro Tololo Observatory, La Serena.  Observers T. Linder, R. Holmes, L.
        Horn.  0.61-m f/6.5 Dall-Kirkham Astrograph + CCD.
    F51 Pan-STARRS 1, Haleakala.  Observers J. Bulger, K. Chambers, T. Lowe, A.
        Schultz, I. Smith.  Measurers S. Chastel, J. Fairlamb, M. Huber, Y.
        Ramanjooloo, R. Wainscoat, R. Weryk, K. Chambers, T. de Boer, H. Gao,
        C.-C. Lin, E. Magnier.  1.8-m Ritchey-Chretien + CCD.
    F52 Pan-STARRS 2, Haleakala.  Observers J. Bulger, T. Lowe, A. Schultz, I.
        Smith, K. Chambers, T. Dukes.  Measurers K. Chambers, S. Chastel, T. de
        Boer, J. Fairlamb, H. Gao, M. Huber, C.-C. Lin, E. Magnier, Y.
        Ramanjooloo, R. Wainscoat, R. Weryk.  1.8-m Ritchey-Chretien + CCD.
    H21 Astronomical Research Observatory, Westfield.  Observer R. Holmes.
        Measurers T. Linder, R. Holmes, L. Horn.  0.81-m f/4.0 astrograph + CCD.
    
    Orbital elements:
    2022 QK36                                                Earth MOID = 0.0485 AU
    Epoch 2022 Aug. 9.0 TT = JDT 2459800.5                  Veres                   
    M 335.13766              (2000.0)            P               Q                  
    n   0.51520574     Peri.  154.79126     +0.99865628     -0.05136117             
    a   1.5410460      Node   208.15543     +0.04472291     +0.92145635             
    e   0.3181313      Incl.    0.83835     +0.02618199     +0.38507170             
    P   1.91           H   25.98          G   0.15           U   8                  
    Residuals in seconds of arc
    220831 F52  0.0   0.0     220901 H21  0.1-  0.6+    220901 F51  0.0   0.2-
    220831 F52  0.0   0.1+    220901 H21  0.1-  0.5+    220901 F51  0.0   0.2-
    220831 F52  0.0   0.1+    220901 H21  0.1-  0.1+    220903 807  0.0   0.1+
    220831 F52  0.1-  0.1-    220901 F51  0.0   0.2-    220903 807  0.4-  0.3+
    220831 F52  0.0   0.0     220901 F51  0.2+  0.1-    220903 807  0.4+  0.2-
    220901 H21  0.2+  0.2+    220901 F51  0.1+  0.1-
    
    Ephemeris:
    2022 QK36                a,e,i = 1.54, 0.32, 1                   q = 1.0508
    Date    TT    R. A. (2000) Decl.     Delta      r    Elong.  Phase     V
    2022 08 04    20 27 26.9 -12 26 25   0.1461  1.1594   171.7     7.3    22.7
    ...
    2022 08 19    20 37 38.1 -10 03 33   0.1023  1.1097   161.6    16.7    22.1
    ...
    2022 08 27    20 51 49.5 -08 08 47   0.08360 1.0884   157.8    20.5    21.8
    ...
    2022 09 02    21 09 49.9 -06 09 46   0.07157 1.0753   156.8    21.7    21.5
    2022 09 03    21 13 39.0 -05 46 07   0.06974 1.0733   156.8    21.7    21.4
    2022 09 04    21 17 44.3 -05 21 10   0.06796 1.0715   156.9    21.7    21.3
    ...
    2022 09 10    21 48 34.6 -02 20 42   0.05848 1.0619   159.0    19.9    20.9
    ...
    2022 09 18    22 48 30.9 +03 05 47   0.05004 1.0536   166.0    13.4    20.4
    ...
    2022 10 03    01 09 18.6 +12 56 32   0.05297 1.0526   167.5    11.9    20.4
    
    M. P. C. Staff               (C) Copyright 2022 MPC           M.P.E.C. 2022-R34
    


    Read MPEC 2022-R33 Read MPEC 2022-R35


    MPEC number:

    Enter an MPEC number in one of the following forms:

    • 1997-B01 (the full form)
    • J97B01 (the packed version of the full form)
    • B01 (the abbreviated form)